Skip Page Navigation
NASA JPL Caltech
NASA Logo - Jet Propulsion Laboratory + View the NASA Portal
+ Center for Near-Earth Object Studies
JPL Home Earth Solar System Stars & Galaxies Technology
JPL Solar System Dynamics
BODIES ORBITS EPHEMERIDES TOOLS PHYSICAL DATA DISCOVERY FAQ SITE MAP
IMPORTANT: The SSD Announcement email list is now available. Major changes are coming in the near future, including possible hostname and/or URL changes. To be notified of such changes, subscribe to this email list.

Please visit this page for more details.


JPL Small-Body Database Browser
Search: [ help ]  
14292 (1148 T-1)
Classification: Main-belt Asteroid          SPK-ID: 2014292
Ephemeris | Orbit Diagram | Orbital Elements | Mission Design | Physical Parameters | Discovery Circumstances | Close-Approach Data ]

[ show orbit diagram ]
Orbital Elements at Epoch 2459000.5 (2020-May-31.0) TDB
Reference: JPL 22 (heliocentric ecliptic J2000)
 Element Value Uncertainty (1-sigma)   Units 
e .09691796436215415 3.1473e-08  
a 2.191718114885131 8.3956e-09 au
q 1.979301256734807 6.8772e-08 au
i 2.303982959951681 4.8185e-06 deg
node 358.8271885336042 9.1427e-05 deg
peri 260.7137291478163 9.5192e-05 deg
M 350.8918342616457 2.6467e-05 deg
tp 2459030.484989187509
(2020-Jun-29.98498919)
8.7141e-05 TDB
period 1185.155871949879
3.24
6.8098e-06
1.864e-08
d
yr
n .303757512847411 1.7454e-09 deg/d
Q 2.404134973035456 9.2092e-09 au
  Orbit Determination Parameters
   # obs. used (total)      928  
   data-arc span      17842 days (48.85 yr)  
   first obs. used      1971-03-24  
   last obs. used      2020-01-28  
   planetary ephem.      DE431  
   SB-pert. ephem.      SB431-N16  
   condition code      0  
   norm. resid. RMS      .5488  
   source      ORB  
   producer      Otto Matic  
   solution date      2020-Feb-22 20:54:45  

Additional Information
 Earth MOID = .965617 au 
 Jupiter MOID = 2.63396 au 
 T_jup = 3.665 
[ show covariance matrix ]

Ephemeris | Orbit Diagram | Orbital Elements | Mission Design | Physical Parameters | Discovery Circumstances | Close-Approach Data ]

Physical Parameter Table
Parameter Symbol Value Units Sigma Reference Notes
absolute magnitude H 15.7   n/a MPO425948  
diameter diameter 1.823 km 0.377 urn:nasa:pds:neowise_diameters_albedos::2.0[mainbelt] (http://adsabs.harvard.edu/abs/2011ApJ...741...68M)  
geometric albedo albedo 0.335   0.222 urn:nasa:pds:neowise_diameters_albedos::2.0[mainbelt] (http://adsabs.harvard.edu/abs/2011ApJ...741...68M)  

14292 (1148 T-1)          Discovered 1971-Mar-25 by van Houten, C. J., van Houten-Groeneveld, I., Gehrels, T. at Palomar
Reference: 20000320/Numbers.arcLast Updated: 2004-04-19

[ show close-approach data ]
Alternate Designations
 1148 T-1 = 1997 EM55 
Ephemeris | Orbit Diagram | Orbital Elements | Mission Design | Physical Parameters | Discovery Circumstances | Close-Approach Data ]
ABOUT SSD CREDITS/AWARDS PRIVACY/COPYRIGHT GLOSSARY LINKS
FirstGov 2020-Apr-02 22:11 UT
(server date/time)  
NASA Home Page
Site Manager:   Ryan S. Park
Webmaster  Alan B. Chamberlin